| time (UTC) | temp F | wind direction | speed MPH | gust MPH | rain 1hr in | rain 24hr in | rain mn in | humidity % | barometer mb |
| 20260831175516 | 71 | 248 | 1.0 | 4.0 | 0.00 | 0.02 | 0.00 | 74 | 1021.3 |
| 20260831175016 | 71 | 293 | 2.0 | 7.0 | 0.00 | 0.02 | 0.00 | 69 | 1021.4 |
| 20260831174516 | 71 | 338 | 1.0 | 5.0 | 0.00 | 0.02 | 0.00 | 73 | 1021.4 |
| 20260831174016 | 70 | 315 | 1.0 | 4.0 | 0.00 | 0.02 | 0.00 | 72 | 1021.4 |
| 20260831173516 | 71 | 315 | 3.0 | 8.0 | 0.00 | 0.02 | 0.00 | 70 | 1021.6 |
| 20260831173017 | 70 | 315 | 1.0 | 4.0 | 0.00 | 0.02 | 0.00 | 70 | 1021.5 |
| 20260831172517 | 70 | 315 | 3.0 | 6.0 | 0.00 | 0.02 | 0.00 | 68 | 1021.5 |
| 20260831172016 | 70 | 315 | 2.0 | 6.0 | 0.00 | 0.02 | 0.00 | 70 | 1021.6 |
| 20260831171517 | 70 | 315 | 2.0 | 4.0 | 0.00 | 0.02 | 0.00 | 72 | 1021.6 |
| 20260831171036 | 71 | 270 | 2.0 | 6.0 | 0.00 | 0.02 | 0.00 | 72 | 1021.6 |
| 20260831170517 | 71 | 315 | 1.0 | 5.0 | 0.00 | 0.02 | 0.00 | 67 | 1021.5 |
| 20260831170017 | 71 | 45 | 2.0 | 5.0 | 0.00 | 0.02 | 0.00 | 69 | 1021.6 |
| 20260831165516 | 71 | 68 | 1.0 | 4.0 | 0.00 | 0.02 | 0.00 | 66 | 1021.6 |
| 20260831165016 | 71 | 248 | 1.0 | 4.0 | 0.00 | 0.02 | 0.00 | 66 | 1021.6 |
| 20260831164516 | 72 | 135 | 2.0 | 6.0 | 0.00 | 0.02 | 0.00 | 64 | 1021.6 |
| 20260831164016 | 71 | 45 | 1.0 | 4.0 | 0.00 | 0.02 | 0.00 | 64 | 1021.7 |
| 20260831163516 | 71 | 180 | 3.0 | 6.0 | 0.00 | 0.02 | 0.00 | 63 | 1021.7 |
| 20260831163017 | 71 | 315 | 2.0 | 6.0 | 0.00 | 0.02 | 0.00 | 64 | 1021.8 |
| 20260831162516 | 70 | 270 | 1.0 | 4.0 | 0.00 | 0.02 | 0.00 | 64 | 1021.8 |
| 20260831162016 | 71 | 315 | 2.0 | 6.0 | 0.00 | 0.02 | 0.00 | 65 | 1021.8 |
| 20260831161516 | 71 | 315 | 1.0 | 4.0 | 0.00 | 0.02 | 0.00 | 67 | 1021.9 |
| 20260831161016 | 72 | 315 | 2.0 | 9.0 | 0.00 | 0.02 | 0.00 | 68 | 1021.9 |
| 20260831160517 | 71 | 158 | 1.0 | 5.0 | 0.00 | 0.02 | 0.00 | 70 | 1022.0 |
| 20260831160016 | 70 | 0.0 | 2.0 | 0.00 | 0.02 | 0.00 | 74 | 1022.0 | |
| 20260831155516 | 70 | 338 | 2.0 | 5.0 | 0.00 | 0.02 | 0.00 | 71 | 1022.1 |
| 20260831155016 | 70 | 225 | 1.0 | 6.0 | 0.00 | 0.02 | 0.00 | 74 | 1022.0 |
| 20260831154536 | 70 | 90 | 1.0 | 8.0 | 0.00 | 0.02 | 0.00 | 71 | 1022.1 |
| 20260831154037 | 70 | 293 | 2.0 | 6.0 | 0.00 | 0.02 | 0.00 | 70 | 1022.0 |
| 20260831153516 | 70 | 0.0 | 4.0 | 0.00 | 0.02 | 0.00 | 73 | 1022.1 | |
| 20260831153016 | 69 | 293 | 1.0 | 4.0 | 0.00 | 0.02 | 0.00 | 75 | 1022.1 |
| 20260831152516 | 70 | 293 | 2.0 | 5.0 | 0.00 | 0.02 | 0.00 | 72 | 1022.1 |
| 20260831152016 | 69 | 158 | 1.0 | 4.0 | 0.00 | 0.02 | 0.00 | 77 | 1021.9 |
| 20260831151517 | 68 | 203 | 1.0 | 6.0 | 0.00 | 0.02 | 0.00 | 76 | 1021.9 |
| 20260831151016 | 68 | 338 | 1.0 | 4.0 | 0.00 | 0.02 | 0.00 | 78 | 1021.9 |
| 20260831150516 | 68 | 315 | 3.0 | 6.0 | 0.00 | 0.02 | 0.00 | 78 | 1021.9 |
| 20260831150036 | 68 | 315 | 2.0 | 4.0 | 0.00 | 0.02 | 0.00 | 77 | 1021.9 |
| 20260831145517 | 68 | 315 | 1.0 | 4.0 | 0.00 | 0.02 | 0.00 | 80 | 1021.8 |
| 20260831145016 | 68 | 315 | 3.0 | 7.0 | 0.00 | 0.02 | 0.00 | 75 | 1021.9 |
| 20260831144517 | 68 | 0.0 | 2.0 | 0.00 | 0.02 | 0.00 | 80 | 1021.8 | |
| 20260831144016 | 68 | 315 | 1.0 | 5.0 | 0.00 | 0.02 | 0.00 | 78 | 1021.9 |
| 20260831143517 | 67 | 0.0 | 2.0 | 0.00 | 0.02 | 0.00 | 78 | 1021.9 | |
| 20260831143017 | 67 | 315 | 3.0 | 5.0 | 0.00 | 0.02 | 0.00 | 79 | 1022.0 |
| 20260831142517 | 67 | 135 | 1.0 | 3.0 | 0.00 | 0.02 | 0.00 | 83 | 1022.0 |
| 20260831142016 | 66 | 68 | 1.0 | 3.0 | 0.00 | 0.02 | 0.00 | 81 | 1022.0 |
| 20260831141516 | 66 | 315 | 2.0 | 5.0 | 0.00 | 0.02 | 0.00 | 84 | 1022.1 |
| 20260831141016 | 66 | 225 | 2.0 | 4.0 | 0.00 | 0.02 | 0.00 | 86 | 1022.0 |
| 20260831140516 | 66 | 293 | 1.0 | 5.0 | 0.00 | 0.02 | 0.00 | 85 | 1022.0 |
| 20260831140016 | 67 | 338 | 1.0 | 5.0 | 0.00 | 0.02 | 0.00 | 84 | 1022.0 |
| 20260831135517 | 66 | 135 | 2.0 | 5.0 | 0.00 | 0.02 | 0.00 | 84 | 1022.0 |
| 20260831135037 | 66 | 293 | 1.0 | 4.0 | 0.00 | 0.02 | 0.00 | 87 | 1021.9 |
| 20260831134536 | 66 | 315 | 2.0 | 5.0 | 0.00 | 0.02 | 0.00 | 81 | 1021.9 |
| 20260831134016 | 67 | 293 | 2.0 | 5.0 | 0.00 | 0.02 | 0.00 | 80 | 1021.9 |
| 20260831133517 | 66 | 0.0 | 2.0 | 0.00 | 0.02 | 0.00 | 89 | 1021.8 | |
| 20260831133017 | 65 | 135 | 1.0 | 3.0 | 0.00 | 0.02 | 0.00 | 87 | 1021.8 |
| 20260831132516 | 64 | 248 | 1.0 | 3.0 | 0.00 | 0.02 | 0.00 | 88 | 1021.8 |
| 20260831132017 | 64 | 0.0 | 1.0 | 0.00 | 0.02 | 0.00 | 87 | 1021.9 | |
| 20260831131516 | 64 | 0.0 | 2.0 | 0.00 | 0.02 | 0.00 | 87 | 1021.9 | |
| 20260831131016 | 63 | 0.0 | 2.0 | 0.00 | 0.02 | 0.00 | 89 | 1021.9 | |
| 20260831130516 | 62 | 0.0 | 1.0 | 0.00 | 0.02 | 0.00 | 90 | 1021.9 | |
| 20260831130036 | 61 | 0.0 | 4.0 | 0.00 | 0.02 | 0.00 | 93 | 1022.0 | |
| 20260831125536 | 61 | 315 | 2.0 | 4.0 | 0.00 | 0.02 | 0.00 | 94 | 1022.0 |
| 20260831125016 | 60 | 315 | 2.0 | 5.0 | 0.00 | 0.02 | 0.00 | 95 | 1022.0 |
| 20260831124516 | 60 | 315 | 1.0 | 4.0 | 0.00 | 0.02 | 0.00 | 96 | 1022.0 |
| 20260831124017 | 59 | 315 | 1.0 | 3.0 | 0.00 | 0.02 | 0.00 | 97 | 1022.0 |
| 20260831123517 | 59 | 293 | 1.0 | 2.0 | 0.00 | 0.02 | 0.00 | 98 | 1022.1 |
| 20260831123016 | 59 | 0.0 | 2.0 | 0.00 | 0.02 | 0.00 | 98 | 1022.2 | |
| 20260831122517 | 58 | 0.0 | 0.0 | 0.00 | 0.02 | 0.00 | 99 | 1022.0 | |
| 20260831122017 | 58 | 293 | 1.0 | 3.0 | 0.00 | 0.02 | 0.00 | 99 | 1022.0 |
| 20260831121517 | 58 | 0.0 | 3.0 | 0.00 | 0.02 | 0.00 | 100 | 1022.0 | |
| 20260831121016 | 58 | 0.0 | 0.0 | 0.00 | 0.02 | 0.00 | 100 | 1022.0 | |
| 20260831120517 | 57 | 0.0 | 0.0 | 0.00 | 0.02 | 0.00 | 100 | 1022.1 | |
| 20260831120036 | 57 | 0.0 | 1.0 | 0.00 | 0.02 | 0.00 | 99 | 1022.2 | |
| 20260831115516 | 57 | 315 | 1.0 | 3.0 | 0.00 | 0.02 | 0.00 | 99 | 1022.3 |
| 20260831115016 | 57 | 0.0 | 1.0 | 0.00 | 0.02 | 0.00 | 100 | 1022.3 | |
| 20260831114536 | 57 | 0.0 | 2.0 | 0.00 | 0.02 | 0.00 | 100 | 1022.3 | |
| 20260831114017 | 57 | 0.0 | 1.0 | 0.00 | 0.02 | 0.00 | 100 | 1022.2 | |
| 20260831113517 | 57 | 0.0 | 1.0 | 0.00 | 0.02 | 0.00 | 100 | 1022.1 | |
| 20260831113016 | 56 | 0.0 | 0.0 | 0.00 | 0.02 | 0.00 | 100 | 1022.1 | |
| 20260831112516 | 56 | 0.0 | 0.0 | 0.00 | 0.02 | 0.00 | 100 | 1022.0 | |
| 20260831112016 | 55 | 0.0 | 2.0 | 0.00 | 0.02 | 0.00 | 100 | 1022.0 | |
| 20260831111516 | 55 | 0.0 | 0.0 | 0.00 | 0.02 | 0.00 | 100 | 1021.9 | |
| 20260831111016 | 55 | 0.0 | 0.0 | 0.00 | 0.02 | 0.00 | 99 | 1021.9 | |
| 20260831110537 | 55 | 0.0 | 0.0 | 0.00 | 0.02 | 0.00 | 99 | 1021.8 | |
| 20260831110036 | 55 | 0.0 | 0.0 | 0.00 | 0.02 | 0.00 | 99 | 1021.8 | |
| 20260831105517 | 55 | 0.0 | 0.0 | 0.00 | 0.02 | 0.00 | 99 | 1021.7 | |
| 20260831105017 | 55 | 0.0 | 0.0 | 0.00 | 0.02 | 0.00 | 99 | 1021.6 | |
| 20260831104516 | 55 | 0.0 | 1.0 | 0.00 | 0.02 | 0.00 | 99 | 1021.6 | |
| 20260831104017 | 55 | 0.0 | 1.0 | 0.00 | 0.02 | 0.00 | 99 | 1021.5 | |
| 20260831103537 | 56 | 0.0 | 2.0 | 0.00 | 0.02 | 0.00 | 100 | 1021.5 | |
| 20260831103016 | 56 | 0.0 | 1.0 | 0.00 | 0.02 | 0.00 | 100 | 1021.5 | |
| 20260831102537 | 56 | 0.0 | 1.0 | 0.00 | 0.02 | 0.00 | 100 | 1021.5 | |
| 20260831102017 | 56 | 0.0 | 0.0 | 0.00 | 0.02 | 0.00 | 100 | 1021.5 | |
| 20260831101517 | 56 | 0.0 | 0.0 | 0.00 | 0.02 | 0.00 | 100 | 1021.5 | |
| 20260831101036 | 56 | 0.0 | 0.0 | 0.00 | 0.02 | 0.00 | 100 | 1021.5 | |
| 20260831100537 | 56 | 0.0 | 0.0 | 0.00 | 0.02 | 0.00 | 100 | 1021.4 | |
| 20260831100036 | 56 | 0.0 | 0.0 | 0.00 | 0.02 | 0.00 | 100 | 1021.4 | |
| 20260831095517 | 56 | 0.0 | 0.0 | 0.00 | 0.02 | 0.00 | 100 | 1021.4 | |
| 20260831095017 | 56 | 0.0 | 0.0 | 0.00 | 0.02 | 0.00 | 100 | 1021.4 | |
| 20260831094516 | 56 | 0.0 | 0.0 | 0.00 | 0.02 | 0.00 | 100 | 1021.3 | |
| 20260831094037 | 56 | 0.0 | 0.0 | 0.00 | 0.02 | 0.00 | 100 | 1021.3 | |
| 20260831093516 | 56 | 0.0 | 0.0 | 0.00 | 0.02 | 0.00 | 100 | 1021.3 | |
| 20260831093017 | 56 | 0.0 | 0.0 | 0.00 | 0.02 | 0.00 | 100 | 1021.3 | |
| 20260831092536 | 56 | 0.0 | 0.0 | 0.00 | 0.02 | 0.00 | 100 | 1021.3 | |
| 20260831092016 | 56 | 0.0 | 0.0 | 0.00 | 0.02 | 0.00 | 100 | 1021.3 | |
| 20260831091516 | 56 | 0.0 | 0.0 | 0.00 | 0.02 | 0.00 | 100 | 1021.3 | |
| 20260831091017 | 56 | 0.0 | 0.0 | 0.00 | 0.02 | 0.00 | 100 | 1021.2 | |
| 20260831090537 | 56 | 0.0 | 0.0 | 0.00 | 0.02 | 0.00 | 100 | 1021.2 | |
| 20260831090017 | 56 | 0.0 | 0.0 | 0.00 | 0.02 | 0.00 | 100 | 1021.0 | |
| 20260831085517 | 56 | 0.0 | 0.0 | 0.00 | 0.02 | 0.00 | 100 | 1021.0 | |
| 20260831085016 | 56 | 0.0 | 0.0 | 0.00 | 0.02 | 0.00 | 100 | 1021.0 | |
| 20260831084517 | 56 | 0.0 | 0.0 | 0.00 | 0.02 | 0.00 | 100 | 1021.0 | |
| 20260831084017 | 55 | 0.0 | 0.0 | 0.00 | 0.02 | 0.00 | 100 | 1020.9 | |
| 20260831083517 | 55 | 0.0 | 0.0 | 0.00 | 0.02 | 0.00 | 100 | 1021.0 | |
| 20260831083036 | 55 | 0.0 | 0.0 | 0.00 | 0.02 | 0.00 | 100 | 1020.9 | |
| 20260831082517 | 55 | 0.0 | 0.0 | 0.00 | 0.02 | 0.00 | 99 | 1021.0 | |
| 20260831082017 | 55 | 0.0 | 0.0 | 0.00 | 0.02 | 0.00 | 99 | 1021.0 | |
| 20260831081516 | 55 | 0.0 | 0.0 | 0.00 | 0.02 | 0.00 | 99 | 1021.0 | |
| 20260831081017 | 55 | 0.0 | 0.0 | 0.00 | 0.02 | 0.00 | 99 | 1021.0 | |
| 20260831080517 | 55 | 0.0 | 0.0 | 0.00 | 0.02 | 0.00 | 99 | 1021.0 | |
| 20260831080017 | 56 | 0.0 | 0.0 | 0.00 | 0.02 | 0.00 | 99 | 1020.9 | |
| 20260831075517 | 56 | 0.0 | 0.0 | 0.00 | 0.02 | 0.00 | 99 | 1020.8 | |
| 20260831075017 | 56 | 0.0 | 0.0 | 0.00 | 0.02 | 0.00 | 99 | 1020.8 | |
| 20260831074517 | 56 | 0.0 | 0.0 | 0.00 | 0.02 | 0.00 | 99 | 1020.8 | |
| 20260831074016 | 56 | 0.0 | 0.0 | 0.00 | 0.02 | 0.00 | 99 | 1020.8 | |
| 20260831073516 | 56 | 0.0 | 0.0 | 0.00 | 0.02 | 0.00 | 99 | 1020.8 | |
| 20260831073037 | 56 | 0.0 | 0.0 | 0.00 | 0.02 | 0.00 | 99 | 1020.7 | |
| 20260831072517 | 57 | 0.0 | 0.0 | 0.00 | 0.02 | 0.00 | 99 | 1020.8 | |
| 20260831072016 | 57 | 0.0 | 0.0 | 0.00 | 0.02 | 0.00 | 99 | 1020.7 | |
| 20260831071517 | 57 | 0.0 | 0.0 | 0.00 | 0.02 | 0.00 | 99 | 1020.7 | |
| 20260831071037 | 57 | 0.0 | 0.0 | 0.00 | 0.02 | 0.00 | 99 | 1020.6 | |
| 20260831070557 | 57 | 0.0 | 0.0 | 0.00 | 0.02 | 0.00 | 99 | 1020.6 | |
| 20260831070017 | 58 | 0.0 | 0.0 | 0.00 | 0.02 | 0.00 | 99 | 1020.5 | |
| 20260831065517 | 58 | 0.0 | 0.0 | 0.00 | 0.02 | 0.00 | 99 | 1020.5 | |
| 20260831065037 | 58 | 0.0 | 0.0 | 0.00 | 0.02 | 0.00 | 99 | 1020.5 | |
| 20260831064517 | 58 | 0.0 | 0.0 | 0.00 | 0.02 | 0.00 | 99 | 1020.5 | |
| 20260831064017 | 59 | 0.0 | 0.0 | 0.00 | 0.02 | 0.00 | 99 | 1020.4 | |
| 20260831063517 | 59 | 0.0 | 0.0 | 0.00 | 0.02 | 0.00 | 99 | 1020.5 | |
| 20260831063017 | 59 | 0.0 | 0.0 | 0.00 | 0.02 | 0.00 | 99 | 1020.4 | |
| 20260831062537 | 59 | 0.0 | 0.0 | 0.00 | 0.02 | 0.00 | 99 | 1020.4 | |
| 20260831062017 | 59 | 0.0 | 0.0 | 0.00 | 0.02 | 0.00 | 99 | 1020.5 | |
| 20260831061517 | 59 | 0.0 | 0.0 | 0.00 | 0.02 | 0.00 | 99 | 1020.5 | |
| 20260831061017 | 59 | 0.0 | 0.0 | 0.00 | 0.02 | 0.00 | 99 | 1020.6 | |
| 20260831060517 | 59 | 0.0 | 0.0 | 0.00 | 0.02 | 0.00 | 99 | 1020.6 | |
| 20260831060017 | 59 | 0.0 | 0.0 | 0.00 | 0.02 | 0.00 | 99 | 1020.7 | |
| 20260831055517 | 59 | 0.0 | 0.0 | 0.00 | 0.02 | 0.00 | 98 | 1020.6 | |
| 20260831055037 | 59 | 0.0 | 0.0 | 0.00 | 0.02 | 0.00 | 98 | 1020.7 | |
| 20260831054517 | 59 | 0.0 | 0.0 | 0.00 | 0.02 | 0.00 | 98 | 1020.6 | |
| 20260831054017 | 60 | 0.0 | 0.0 | 0.00 | 0.02 | 0.00 | 98 | 1020.6 | |
| 20260831053517 | 60 | 0.0 | 0.0 | 0.00 | 0.02 | 0.00 | 98 | 1020.7 | |
| 20260831053017 | 60 | 0.0 | 0.0 | 0.00 | 0.02 | 0.00 | 98 | 1020.7 | |
| 20260831052536 | 60 | 0.0 | 0.0 | 0.00 | 0.02 | 0.00 | 97 | 1020.7 | |
| 20260831052037 | 60 | 0.0 | 0.0 | 0.00 | 0.02 | 0.00 | 97 | 1020.6 | |
| 20260831051517 | 60 | 0.0 | 0.0 | 0.00 | 0.02 | 0.00 | 97 | 1020.6 | |
| 20260831051017 | 61 | 0.0 | 0.0 | 0.00 | 0.02 | 0.00 | 97 | 1020.5 | |
| 20260831050517 | 61 | 0.0 | 0.0 | 0.00 | 0.02 | 0.00 | 97 | 1020.6 | |
| 20260831050017 | 61 | 0.0 | 0.0 | 0.00 | 0.02 | 0.00 | 97 | 1020.6 | |
| 20260831045517 | 61 | 0.0 | 0.0 | 0.00 | 0.02 | 0.00 | 97 | 1020.6 | |
| 20260831045048 | 61 | 0.0 | 0.0 | 0.00 | 0.02 | 0.00 | 96 | 1020.6 | |
| 20260831044517 | 61 | 0.0 | 2.0 | 0.00 | 0.02 | 0.00 | 97 | 1020.5 | |
| 20260831044017 | 61 | 0.0 | 0.0 | 0.00 | 0.02 | 0.00 | 96 | 1020.5 | |
| 20260831043517 | 61 | 0.0 | 0.0 | 0.00 | 0.02 | 0.00 | 96 | 1020.5 | |
| 20260831043017 | 61 | 0.0 | 0.0 | 0.00 | 0.02 | 0.00 | 96 | 1020.4 | |
| 20260831042516 | 61 | 0.0 | 0.0 | 0.00 | 0.02 | 0.00 | 96 | 1020.4 | |
| 20260831042036 | 61 | 0.0 | 0.0 | 0.00 | 0.02 | 0.00 | 96 | 1020.4 | |
| 20260831041517 | 61 | 0.0 | 0.0 | 0.00 | 0.02 | 0.00 | 96 | 1020.3 | |
| 20260831041017 | 61 | 0.0 | 0.0 | 0.00 | 0.02 | 0.00 | 96 | 1020.3 | |
| 20260831040517 | 61 | 0.0 | 0.0 | 0.00 | 0.02 | 0.00 | 96 | 1020.3 | |
| 20260831040017 | 61 | 0.0 | 1.0 | 0.00 | 0.02 | 0.00 | 96 | 1020.3 | |
| 20260831035517 | 61 | 0.0 | 1.0 | 0.00 | 0.02 | 0.02 | 96 | 1020.3 | |
| 20260831035037 | 61 | 0.0 | 0.0 | 0.00 | 0.02 | 0.02 | 96 | 1020.3 | |
| 20260831034517 | 61 | 0.0 | 0.0 | 0.00 | 0.02 | 0.02 | 96 | 1020.2 | |
| 20260831034017 | 61 | 0.0 | 1.0 | 0.00 | 0.02 | 0.02 | 96 | 1020.3 | |
| 20260831033517 | 61 | 0.0 | 0.0 | 0.00 | 0.02 | 0.02 | 96 | 1020.3 | |
| 20260831033017 | 61 | 0.0 | 0.0 | 0.00 | 0.02 | 0.02 | 96 | 1020.2 | |
| 20260831032517 | 61 | 0.0 | 0.0 | 0.00 | 0.02 | 0.02 | 96 | 1020.2 | |
| 20260831032037 | 61 | 0.0 | 1.0 | 0.00 | 0.02 | 0.02 | 96 | 1020.3 | |
| 20260831031517 | 61 | 0.0 | 1.0 | 0.00 | 0.02 | 0.02 | 96 | 1020.3 | |
| 20260831031017 | 61 | 0.0 | 0.0 | 0.00 | 0.02 | 0.02 | 96 | 1020.2 | |
| 20260831030517 | 61 | 0.0 | 0.0 | 0.00 | 0.02 | 0.02 | 96 | 1020.2 | |
| 20260831030016 | 61 | 0.0 | 1.0 | 0.00 | 0.02 | 0.02 | 96 | 1020.2 | |
| 20260831025516 | 62 | 0.0 | 0.0 | 0.00 | 0.02 | 0.02 | 96 | 1020.1 | |
| 20260831025017 | 61 | 0.0 | 1.0 | 0.00 | 0.02 | 0.02 | 95 | 1020.2 | |
| 20260831024537 | 61 | 0.0 | 0.0 | 0.00 | 0.02 | 0.02 | 96 | 1020.2 | |
| 20260831024017 | 61 | 0.0 | 1.0 | 0.00 | 0.02 | 0.02 | 96 | 1020.3 | |
| 20260831023537 | 61 | 0.0 | 1.0 | 0.00 | 0.02 | 0.02 | 96 | 1020.3 | |
| 20260831023017 | 61 | 0.0 | 0.0 | 0.00 | 0.02 | 0.02 | 96 | 1020.1 | |
| 20260831022517 | 61 | 0.0 | 0.0 | 0.00 | 0.02 | 0.02 | 96 | 1020.2 | |
| 20260831022017 | 61 | 0.0 | 1.0 | 0.00 | 0.02 | 0.02 | 95 | 1020.1 | |
| 20260831021517 | 62 | 0.0 | 0.0 | 0.00 | 0.02 | 0.02 | 95 | 1020.1 | |
| 20260831021017 | 62 | 0.0 | 0.0 | 0.00 | 0.02 | 0.02 | 95 | 1020.1 | |
| 20260831020517 | 62 | 0.0 | 0.0 | 0.00 | 0.02 | 0.02 | 95 | 1020.1 | |
| 20260831020017 | 62 | 315 | 1.0 | 2.0 | 0.00 | 0.02 | 0.02 | 95 | 1020.1 |
| 20260831015517 | 62 | 0.0 | 1.0 | 0.00 | 0.02 | 0.02 | 95 | 1020.2 | |
| 20260831015017 | 62 | 0.0 | 1.0 | 0.00 | 0.02 | 0.02 | 95 | 1020.2 | |
| 20260831014517 | 62 | 0.0 | 0.0 | 0.00 | 0.02 | 0.02 | 95 | 1020.1 | |
| 20260831014016 | 62 | 0.0 | 0.0 | 0.00 | 0.02 | 0.02 | 94 | 1020.1 | |
| 20260831013517 | 62 | 0.0 | 0.0 | 0.00 | 0.02 | 0.02 | 94 | 1020.0 | |
| 20260831013036 | 62 | 0.0 | 0.0 | 0.00 | 0.02 | 0.02 | 94 | 1019.8 | |
| 20260831012517 | 62 | 0.0 | 3.0 | 0.00 | 0.02 | 0.02 | 94 | 1019.7 | |
| 20260831012017 | 62 | 0.0 | 0.0 | 0.00 | 0.02 | 0.02 | 94 | 1019.7 | |
| 20260831011517 | 62 | 0.0 | 0.0 | 0.00 | 0.02 | 0.02 | 94 | 1019.5 | |
| 20260831011017 | 62 | 0.0 | 1.0 | 0.00 | 0.02 | 0.02 | 94 | 1019.6 | |
| 20260831010517 | 62 | 0.0 | 1.0 | 0.00 | 0.02 | 0.02 | 93 | 1019.6 | |
| 20260831010037 | 63 | 0.0 | 0.0 | 0.00 | 0.02 | 0.02 | 93 | 1019.5 | |
| 20260831005517 | 63 | 0.0 | 0.0 | 0.00 | 0.02 | 0.02 | 93 | 1019.5 | |
| 20260831005017 | 63 | 0.0 | 1.0 | 0.00 | 0.02 | 0.02 | 93 | 1019.5 | |
| 20260831004517 | 63 | 338 | 1.0 | 2.0 | 0.00 | 0.02 | 0.02 | 93 | 1019.4 |
| 20260831004017 | 63 | 270 | 1.0 | 2.0 | 0.00 | 0.02 | 0.02 | 92 | 1019.3 |
| 20260831003517 | 63 | 0.0 | 2.0 | 0.00 | 0.02 | 0.02 | 92 | 1019.3 | |
| 20260831003017 | 63 | 0.0 | 4.0 | 0.00 | 0.02 | 0.02 | 93 | 1019.2 | |
| 20260831002517 | 63 | 338 | 1.0 | 5.0 | 0.00 | 0.02 | 0.02 | 92 | 1019.1 |
| 20260831002037 | 63 | 0 | 1.0 | 3.0 | 0.00 | 0.02 | 0.02 | 93 | 1019.1 |
| 20260831001517 | 63 | 270 | 1.0 | 5.0 | 0.00 | 0.02 | 0.02 | 92 | 1018.9 |
| 20260831001017 | 63 | 315 | 2.0 | 5.0 | 0.00 | 0.02 | 0.02 | 93 | 1018.8 |
| 20260831000516 | 63 | 315 | 1.0 | 3.0 | 0.00 | 0.02 | 0.02 | 93 | 1018.9 |
| 20260831000017 | 63 | 315 | 1.0 | 3.0 | 0.00 | 0.02 | 0.02 | 93 | 1018.9 |
| 20260830235517 | 63 | 293 | 2.0 | 8.0 | 0.00 | 0.02 | 0.02 | 93 | 1018.8 |
| 20260830235017 | 63 | 315 | 1.0 | 4.0 | 0.00 | 0.02 | 0.02 | 94 | 1018.6 |
| 20260830234537 | 64 | 293 | 1.0 | 7.0 | 0.00 | 0.02 | 0.02 | 94 | 1018.6 |
| 20260830234017 | 64 | 293 | 2.0 | 7.0 | 0.00 | 0.02 | 0.02 | 94 | 1018.6 |
| 20260830233517 | 64 | 270 | 1.0 | 4.0 | 0.00 | 0.02 | 0.02 | 94 | 1018.6 |
| 20260830233017 | 64 | 315 | 1.0 | 4.0 | 0.00 | 0.02 | 0.02 | 94 | 1018.6 |
| 20260830232517 | 64 | 293 | 1.0 | 5.0 | 0.00 | 0.02 | 0.02 | 94 | 1018.5 |
| 20260830232017 | 64 | 293 | 1.0 | 3.0 | 0.00 | 0.02 | 0.02 | 95 | 1018.5 |
| 20260830231516 | 64 | 315 | 1.0 | 4.0 | 0.00 | 0.02 | 0.02 | 94 | 1018.4 |
| 20260830231017 | 64 | 315 | 1.0 | 3.0 | 0.00 | 0.02 | 0.02 | 95 | 1018.3 |
| 20260830230517 | 64 | 0.0 | 3.0 | 0.00 | 0.02 | 0.02 | 94 | 1018.4 | |
| 20260830230017 | 63 | 315 | 2.0 | 4.0 | 0.01 | 0.02 | 0.02 | 94 | 1018.4 |
| 20260830225517 | 63 | 0.0 | 2.0 | 0.01 | 0.02 | 0.02 | 95 | 1018.4 | |
| 20260830225017 | 63 | 0.0 | 1.0 | 0.02 | 0.02 | 0.02 | 96 | 1018.4 | |
| 20260830224517 | 63 | 0.0 | 0.0 | 0.02 | 0.02 | 0.02 | 96 | 1018.4 | |
| 20260830224017 | 63 | 0.0 | 0.0 | 0.02 | 0.02 | 0.02 | 96 | 1018.4 | |
| 20260830223517 | 64 | 0.0 | 0.0 | 0.02 | 0.02 | 0.02 | 96 | 1018.5 | |
| 20260830223017 | 64 | 0.0 | 1.0 | 0.02 | 0.02 | 0.02 | 95 | 1018.5 | |
| 20260830222557 | 64 | 0.0 | 0.0 | 0.02 | 0.02 | 0.02 | 95 | 1018.5 | |
| 20260830222017 | 64 | 0.0 | 0.0 | 0.02 | 0.02 | 0.02 | 94 | 1018.6 | |
| 20260830221537 | 65 | 0.0 | 0.0 | 0.02 | 0.02 | 0.02 | 93 | 1018.6 | |
| 20260830221017 | 65 | 0.0 | 0.0 | 0.02 | 0.02 | 0.02 | 91 | 1018.7 | |
| 20260830220517 | 66 | 0.0 | 0.0 | 0.02 | 0.02 | 0.02 | 89 | 1018.7 | |
| 20260830220017 | 66 | 0.0 | 0.0 | 0.01 | 0.01 | 0.01 | 86 | 1018.6 | |
| 20260830215517 | 67 | 225 | 1.0 | 3.0 | 0.01 | 0.01 | 0.01 | 85 | 1018.6 |
| 20260830215017 | 67 | 135 | 1.0 | 4.0 | 0.00 | 0.00 | 0.00 | 83 | 1018.6 |
| 20260830214517 | 68 | 225 | 1.0 | 4.0 | 0.00 | 0.00 | 0.00 | 82 | 1018.6 |
| 20260830214017 | 68 | 225 | 1.0 | 4.0 | 0.00 | 0.00 | 0.00 | 80 | 1018.6 |
| 20260830213517 | 68 | 158 | 2.0 | 6.0 | 0.00 | 0.00 | 0.00 | 79 | 1018.5 |
| 20260830213017 | 68 | 90 | 1.0 | 6.0 | 0.00 | 0.00 | 0.00 | 80 | 1018.4 |
| 20260830212517 | 68 | 315 | 1.0 | 4.0 | 0.00 | 0.00 | 0.00 | 79 | 1018.4 |
| 20260830212037 | 68 | 315 | 1.0 | 4.0 | 0.00 | 0.00 | 0.00 | 78 | 1018.4 |
| 20260830211537 | 68 | 315 | 1.0 | 3.0 | 0.00 | 0.00 | 0.00 | 79 | 1018.5 |
| 20260830211017 | 69 | 0.0 | 2.0 | 0.00 | 0.00 | 0.00 | 79 | 1018.5 | |
| 20260830210537 | 69 | 293 | 1.0 | 1.0 | 0.00 | 0.00 | 0.00 | 79 | 1018.5 |
| 20260830210017 | 69 | 0.0 | 2.0 | 0.00 | 0.00 | 0.00 | 79 | 1018.4 | |
| 20260830205537 | 69 | 0.0 | 2.0 | 0.00 | 0.00 | 0.00 | 78 | 1018.5 | |
| 20260830205018 | 69 | 315 | 1.0 | 2.0 | 0.00 | 0.00 | 0.00 | 77 | 1018.6 |
| 20260830204517 | 69 | 0.0 | 2.0 | 0.00 | 0.00 | 0.00 | 78 | 1018.6 | |
| 20260830204016 | 69 | 0.0 | 1.0 | 0.00 | 0.00 | 0.00 | 78 | 1018.6 | |
| 20260830203517 | 70 | 180 | 1.0 | 3.0 | 0.00 | 0.00 | 0.00 | 76 | 1018.5 |
| 20260830203017 | 70 | 0.0 | 1.0 | 0.00 | 0.00 | 0.00 | 79 | 1018.7 | |
| 20260830202517 | 70 | 0.0 | 0.0 | 0.00 | 0.00 | 0.00 | 79 | 1018.7 | |
| 20260830202017 | 70 | 0.0 | 2.0 | 0.00 | 0.00 | 0.00 | 77 | 1018.5 | |
| 20260830201517 | 70 | 293 | 1.0 | 2.0 | 0.00 | 0.00 | 0.00 | 76 | 1018.7 |
| 20260830201037 | 71 | 293 | 1.0 | 2.0 | 0.00 | 0.00 | 0.00 | 75 | 1018.6 |
| 20260830200537 | 71 | 293 | 1.0 | 3.0 | 0.00 | 0.00 | 0.00 | 73 | 1018.6 |
| 20260830200017 | 72 | 0.0 | 3.0 | 0.00 | 0.00 | 0.00 | 72 | 1018.6 | |
| 20260830195517 | 72 | 315 | 1.0 | 2.0 | 0.00 | 0.00 | 0.00 | 72 | 1018.7 |
| 20260830195017 | 72 | 0.0 | 2.0 | 0.00 | 0.00 | 0.00 | 72 | 1018.8 | |
| 20260830194517 | 72 | 225 | 2.0 | 8.0 | 0.00 | 0.00 | 0.00 | 71 | 1018.8 |
| 20260830194017 | 72 | 315 | 2.0 | 6.0 | 0.00 | 0.00 | 0.00 | 72 | 1018.8 |
| 20260830193517 | 72 | 135 | 1.0 | 4.0 | 0.00 | 0.00 | 0.00 | 72 | 1018.9 |
| 20260830193017 | 72 | 270 | 2.0 | 5.0 | 0.00 | 0.00 | 0.00 | 73 | 1018.9 |
| 20260830192517 | 71 | 225 | 1.0 | 3.0 | 0.00 | 0.00 | 0.00 | 74 | 1019.0 |
| 20260830192017 | 71 | 338 | 2.0 | 5.0 | 0.00 | 0.00 | 0.00 | 72 | 1019.2 |
| 20260830191517 | 71 | 315 | 2.0 | 7.0 | 0.00 | 0.00 | 0.00 | 75 | 1019.2 |
| 20260830191017 | 71 | 315 | 3.0 | 7.0 | 0.00 | 0.00 | 0.00 | 74 | 1019.1 |
| 20260830190517 | 71 | 315 | 2.0 | 5.0 | 0.00 | 0.00 | 0.00 | 73 | 1019.2 |
| 20260830190017 | 71 | 315 | 2.0 | 5.0 | 0.00 | 0.00 | 0.00 | 72 | 1019.3 |
| 20260830185517 | 72 | 315 | 4.0 | 7.0 | 0.00 | 0.00 | 0.00 | 70 | 1019.3 |
| 20260830185037 | 72 | 315 | 2.0 | 5.0 | 0.00 | 0.00 | 0.00 | 69 | 1019.3 |
| 20260830184517 | 73 | 315 | 3.0 | 6.0 | 0.00 | 0.00 | 0.00 | 67 | 1019.3 |
| 20260830184017 | 73 | 135 | 1.0 | 4.0 | 0.00 | 0.00 | 0.00 | 68 | 1019.3 |
| 20260830183517 | 73 | 293 | 1.0 | 6.0 | 0.00 | 0.00 | 0.00 | 67 | 1019.4 |
| 20260830183037 | 73 | 338 | 3.0 | 5.0 | 0.00 | 0.00 | 0.00 | 67 | 1019.3 |
| 20260830182517 | 73 | 315 | 2.0 | 6.0 | 0.00 | 0.00 | 0.00 | 69 | 1019.4 |
| 20260830182017 | 72 | 338 | 2.0 | 4.0 | 0.00 | 0.00 | 0.00 | 70 | 1019.5 |
| 20260830181517 | 73 | 315 | 3.0 | 6.0 | 0.00 | 0.00 | 0.00 | 69 | 1019.5 |
| 20260830181017 | 72 | 0.0 | 3.0 | 0.00 | 0.00 | 0.00 | 72 | 1019.6 | |
| 20260830180537 | 71 | 315 | 1.0 | 3.0 | 0.00 | 0.00 | 0.00 | 70 | 1019.6 |
| 20260830180017 | 72 | 315 | 3.0 | 10.0 | 0.00 | 0.00 | 0.00 | 68 | 1019.7 |